Date_and_time,latitude,longitude,wind_speed,RelWindDirFrom,WindDirFrom,air_pressure,air_temperature,relative_humidity,Temp,platform_speed_wrt_ground,air_pressure_at_mean_sea_level,platform_orientation
2019-01-28 23:50,50.6304466666667,-96.9807633333333,6.2,7.1,355,991.05,-23.6,69,0.36,0.0,1021.34,235.2
2019-01-29 00:00,50.630445,-96.9807666666667,7.2,9.7,4,991.20,-23.5,69,0.37,0.0,1021.50,360.0
2019-01-29 00:00,50.630445,-96.9807666666667,9.0,9.0,3,991.22,-23.4,69,0.38,0.0,1021.57,360.0
2019-01-29 00:10,50.6304483333333,-96.9807733333333,9.1,11.7,4,991.26,-23.5,67,0.38,0.0,1021.70,360.0
2019-01-29 00:20,50.6304466666667,-96.980775,9.7,13.0,356,991.30,-23.4,63,0.38,0.0,1021.78,360.0
2019-01-29 00:30,50.6304466666667,-96.98077,10.3,13.6,356,991.39,-23.5,63,0.38,0.0,1021.92,360.0
2019-01-29 00:40,50.6304466666667,-96.9807666666667,11.1,14.3,1,991.50,-23.7,64,0.40,0.0,1022.09,360.0
2019-01-29 00:50,50.6304466666667,-96.9807683333333,12.5,15.8,358,991.58,-23.9,65,0.43,0.0,1022.22,360.0
2019-01-29 01:00,50.6304483333333,-96.9807683333333,12.2,16.1,358,991.67,-23.9,63,0.45,0.0,1022.33,68.5
2019-01-29 01:10,50.6304483333333,-96.9807666666667,11.3,13.8,3,991.71,-24.0,65,0.46,0.0,1022.40,68.5
2019-01-29 01:20,50.63045,-96.9807666666667,11.3,13.5,2,991.77,-24.3,68,0.47,0.0,1022.49,68.5
2019-01-29 01:30,50.63045,-96.9807666666667,11.4,14.2,7,991.88,-24.7,67,0.47,0.0,1022.61,68.5
2019-01-29 01:40,50.6304566666667,-96.9807533333333,10.8,13.7,359,992.06,-24.8,65,0.46,0.0,1022.79,68.5
2019-01-29 01:50,50.630455,-96.9807583333333,10.4,12.6,356,992.27,-24.8,64,0.42,0.0,1023.01,68.5
2019-01-29 02:00,50.6304533333333,-96.980765,10.5,16.2,345,992.33,-24.7,61,0.41,0.0,1023.07,360.0
2019-01-29 02:10,50.6304533333333,-96.980765,12.8,17.1,349,992.38,-24.6,58,0.42,0.0,1023.11,360.0
2019-01-29 02:20,50.6304533333333,-96.9807666666667,10.6,14.7,342,992.62,-24.7,58,0.44,0.0,1023.37,360.0
2019-01-29 02:30,50.6304516666667,-96.9807666666667,11.9,17.3,335,992.67,-25.0,57,0.45,0.0,1023.45,360.0
2019-01-29 02:40,50.6304516666667,-96.9807683333333,15.1,20.9,343,992.65,-25.2,56,0.46,0.0,1023.45,360.0
2019-01-29 02:50,50.6304533333333,-96.9807716666667,15.2,22.0,344,992.72,-25.4,56,0.47,0.0,1023.53,360.0
2019-01-29 03:00,50.6304533333333,-96.98077,12.9,18.2,341,992.93,-25.6,56,0.48,0.0,1023.77,360.0
2019-01-29 03:10,50.6304533333333,-96.98077,10.8,14.6,345,993.17,-25.7,57,0.48,0.0,1024.04,360.0
2019-01-29 03:20,50.6304533333333,-96.9807683333333,9.0,12.0,342,993.35,-25.9,59,0.48,0.0,1024.27,360.0
2019-01-29 03:30,50.630455,-96.98077,8.1,11.9,336,993.49,-26.0,60,0.49,0.0,1024.43,360.0
2019-01-29 03:40,50.630455,-96.98077,11.6,16.0,342,993.53,-25.9,60,0.49,0.0,1024.46,360.0
2019-01-29 03:50,50.630455,-96.98077,12.8,16.9,348,993.54,-25.9,60,0.49,0.0,1024.46,360.0
2019-01-29 04:00,50.630465,-96.9808283333333,12.1,16.4,346,993.62,-26.1,60,0.49,0.0,1024.55,299.3
2019-01-29 04:10,50.6304183333333,-96.9807383333333,13.7,17.8,346,993.63,-26.1,61,0.49,0.0,1024.57,299.3
2019-01-29 04:20,50.6304466666667,-96.98076,14.6,18.3,345,993.63,-26.2,62,0.49,0.0,1024.59,299.3
2019-01-29 04:30,50.6304483333333,-96.980765,12.6,16.3,348,993.80,-26.4,63,0.49,0.0,1024.79,299.3
2019-01-29 04:40,50.6304483333333,-96.9807633333333,12.2,16.6,343,993.91,-26.6,64,0.49,0.0,1024.93,299.3
2019-01-29 04:50,50.63045,-96.9807633333333,12.1,19.3,341,993.95,-26.8,63,0.48,0.0,1024.99,299.3
2019-01-29 05:00,50.63045,-96.980765,14.7,19.0,349,993.84,-27.1,62,0.48,0.0,1024.91,90.0
2019-01-29 05:10,50.6304483333333,-96.980765,15.4,21.4,351,993.90,-27.5,62,0.48,0.0,1025.02,90.0
2019-01-29 05:20,50.6304483333333,-96.980765,13.5,19.8,343,994.00,-27.9,61,0.48,0.0,1025.15,90.0
2019-01-29 05:30,50.63045,-96.9807683333333,13.9,18.0,341,994.15,-28.1,61,0.48,0.0,1025.31,90.0
2019-01-29 05:40,50.6304633333333,-96.9807816666667,12.8,17.2,345,994.30,-28.3,60,0.48,0.0,1025.48,90.0
2019-01-29 05:50,50.6304583333333,-96.980765,12.2,17.0,345,994.40,-28.5,59,0.48,0.0,1025.60,90.0
2019-01-29 06:00,50.6304566666667,-96.980765,15.3,20.1,346,994.36,-28.6,58,0.48,0.0,1025.58,0.0
2019-01-29 06:10,50.6304583333333,-96.9807633333333,13.8,17.7,349,994.57,-28.9,58,0.47,0.0,1025.81,0.0
2019-01-29 06:20,50.6304566666667,-96.9807633333333,14.1,20.2,348,994.66,-29.2,58,0.47,0.0,1025.94,0.0
2019-01-29 06:30,50.6304516666667,-96.980775,12.3,18.7,342,994.85,-29.4,59,0.47,0.0,1026.16,0.0
2019-01-29 06:40,50.63046,-96.9807733333333,11.2,17.1,338,994.96,-29.6,59,0.47,0.0,1026.30,0.0
2019-01-29 06:50,50.6304566666667,-96.980775,11.2,14.9,342,995.03,-29.6,60,0.45,0.0,1026.39,0.0
2019-01-29 07:00,50.6304533333333,-96.9807783333333,10.5,14.6,340,995.05,-29.7,61,0.45,0.0,1026.45,123.4
2019-01-29 07:10,50.630455,-96.9807783333333,10.7,16.6,335,995.09,-29.7,62,0.45,0.0,1026.51,123.4
2019-01-29 07:20,50.630455,-96.9807783333333,10.7,15.3,334,995.08,-29.8,62,0.45,0.0,1026.52,123.4
2019-01-29 07:30,50.6304416666667,-96.9807783333333,9.4,13.3,341,995.15,-29.9,63,0.45,0.0,1026.62,123.4
2019-01-29 07:40,50.6304433333333,-96.9807716666667,11.6,16.9,336,995.14,-30.1,61,0.45,0.0,1026.63,123.4
2019-01-29 07:50,50.6304433333333,-96.9807766666667,12.1,18.2,334,995.18,-30.4,59,0.45,0.0,1026.70,123.4
2019-01-29 08:00,50.6304516666667,-96.98078,12.3,17.1,334,995.25,-30.6,56,0.43,0.0,1026.80,270.0
2019-01-29 08:10,50.6304566666667,-96.9807916666667,11.4,16.0,330,995.30,-30.8,53,0.43,0.0,1026.89,270.0
2019-01-29 08:20,50.6304616666667,-96.9807733333333,10.7,16.5,330,995.37,-31.0,51,0.43,0.0,1026.99,270.0
2019-01-29 08:30,50.6304533333333,-96.9807666666667,10.7,16.5,321,995.35,-31.1,50,0.43,0.0,1026.99,270.0
2019-01-29 08:40,50.630455,-96.9807683333333,9.9,15.1,311,995.39,-31.3,51,0.42,0.0,1027.04,270.0
2019-01-29 08:50,50.630455,-96.9807683333333,11.4,17.2,315,995.49,-31.4,52,0.42,0.0,1027.15,270.0
2019-01-29 09:00,50.630455,-96.9807683333333,8.4,14.0,315,995.72,-31.6,53,0.42,0.0,1027.41,0.0
2019-01-29 09:10,50.6304533333333,-96.9807683333333,8.1,13.2,312,995.84,-31.7,54,0.41,0.0,1027.54,0.0
2019-01-29 09:20,50.63045,-96.98078,9.9,16.2,314,995.87,-31.8,53,0.41,0.0,1027.58,0.0
2019-01-29 09:30,50.6304533333333,-96.980765,9.7,13.9,318,995.93,-31.8,53,0.40,0.0,1027.66,0.0
2019-01-29 09:40,50.6304483333333,-96.9807633333333,9.0,14.1,313,995.94,-31.9,53,0.40,0.0,1027.70,0.0
2019-01-29 09:50,50.6304533333333,-96.9807583333333,9.8,14.7,311,995.88,-32.0,53,0.40,0.0,1027.66,0.0
2019-01-29 10:00,50.6304516666667,-96.9807583333333,11.1,17.8,316,995.79,-32.1,54,0.40,0.0,1027.58,90.0
2019-01-29 10:10,50.6304516666667,-96.9807583333333,11.4,17.6,317,995.85,-32.2,55,0.38,0.0,1027.67,90.0
2019-01-29 10:20,50.63045,-96.9807616666667,10.2,17.4,319,996.03,-32.4,56,0.38,0.0,1027.88,90.0
2019-01-29 10:30,50.63045,-96.9807633333333,10.1,16.8,322,996.14,-32.5,56,0.38,0.0,1028.01,90.0
2019-01-29 10:40,50.63045,-96.9807633333333,10.8,17.6,316,996.15,-32.7,56,0.39,0.0,1028.03,90.0
2019-01-29 10:50,50.63046,-96.9807716666667,11.4,17.3,318,996.16,-32.7,57,0.39,0.0,1028.06,90.0
2019-01-29 11:00,50.630445,-96.980765,10.3,14.4,315,996.31,-32.8,58,0.39,0.0,1028.23,137.2
2019-01-29 11:10,50.63045,-96.980765,10.2,16.5,318,996.35,-32.9,58,0.38,0.0,1028.29,137.2
2019-01-29 11:20,50.6304483333333,-96.9807666666667,10.8,17.1,318,996.34,-33.1,58,0.35,0.0,1028.29,137.2
2019-01-29 11:30,50.63045,-96.9807666666667,11.6,18.4,319,996.36,-33.1,58,0.33,0.0,1028.32,137.2
2019-01-29 11:40,50.6304533333333,-96.9807666666667,11.3,16.8,321,996.34,-33.3,58,0.31,0.0,1028.31,137.2
2019-01-29 11:50,50.6304516666667,-96.9807666666667,12.2,18.2,320,996.30,-33.4,58,0.30,0.0,1028.29,137.2
2019-01-29 12:00,50.6304516666667,-96.9807683333333,11.4,16.3,321,996.51,-33.5,58,0.29,0.0,1028.52,90.0
2019-01-29 12:10,50.6304583333333,-96.9807633333333,11.5,17.2,321,996.64,-33.6,58,0.30,0.0,1028.67,90.0
2019-01-29 12:20,50.6304483333333,-96.980755,10.7,15.7,318,996.82,-33.7,58,0.31,0.0,1028.88,90.0
2019-01-29 12:30,50.6304566666667,-96.98076,11.4,19.3,320,996.87,-33.8,58,0.33,0.0,1028.94,90.0
2019-01-29 12:40,50.6304516666667,-96.9807616666667,10.8,15.8,322,997.02,-33.9,58,0.34,0.0,1029.11,90.0
2019-01-29 12:50,50.63045,-96.9807733333333,10.8,15.5,321,997.17,-33.9,58,0.32,0.0,1029.27,90.0
2019-01-29 13:00,50.6304533333333,-96.9807716666667,10.6,16.6,320,997.36,-34.0,58,0.30,0.0,1029.48,270.0
2019-01-29 13:10,50.6304566666667,-96.98077,10.8,17.9,320,997.41,-34.1,58,0.31,0.0,1029.55,270.0
2019-01-29 13:20,50.6304566666667,-96.98077,11.3,16.1,321,997.51,-34.2,58,0.32,0.0,1029.66,270.0
2019-01-29 13:30,50.6304216666667,-96.98076,10.6,16.9,320,997.66,-34.3,58,0.32,0.0,1029.83,270.0
2019-01-29 13:40,50.6304483333333,-96.9807683333333,10.1,15.7,317,997.83,-34.4,58,0.32,0.0,1030.02,270.0
2019-01-29 13:50,50.6304533333333,-96.9807716666667,9.7,15.5,316,997.92,-34.6,59,0.31,0.0,1030.13,270.0
2019-01-29 14:00,50.6304566666667,-96.9807683333333,9.5,13.9,318,997.99,-34.7,60,0.31,0.0,1030.22,360.0
2019-01-29 14:10,50.6304533333333,-96.9807683333333,9.2,14.0,317,998.14,-34.8,60,0.31,0.0,1030.39,360.0
2019-01-29 14:20,50.6304533333333,-96.98077,8.6,12.2,318,998.35,-34.9,61,0.30,0.0,1030.62,360.0
2019-01-29 14:30,50.630455,-96.98077,8.6,13.8,318,998.55,-34.8,60,0.32,0.0,1030.82,360.0
2019-01-29 14:40,50.6304566666667,-96.98077,9.1,13.2,321,998.63,-34.8,59,0.33,0.0,1030.91,360.0
2019-01-29 14:50,50.630455,-96.98077,9.4,15.5,320,998.70,-34.8,58,0.34,0.0,1030.98,360.0
2019-01-29 15:00,50.6304566666667,-96.98077,10.1,16.6,321,998.71,-34.7,57,0.34,0.0,1030.99,90.0
2019-01-29 15:10,50.6304583333333,-96.980765,10.4,16.5,323,998.79,-34.5,57,0.33,0.0,1031.08,90.0
2019-01-29 15:20,50.6304566666667,-96.980765,10.1,14.9,322,998.81,-34.4,56,0.31,0.0,1031.09,90.0
2019-01-29 15:30,50.630455,-96.980765,9.8,15.0,323,998.94,-34.2,55,0.29,0.0,1031.23,90.0
2019-01-29 15:40,50.6304566666667,-96.980765,10.5,14.7,326,998.92,-34.1,55,0.29,0.0,1031.21,90.0
2019-01-29 15:50,50.6304566666667,-96.9807633333333,9.8,14.8,325,999.07,-34.0,54,0.29,0.0,1031.36,90.0
2019-01-29 16:00,50.630455,-96.9807616666667,11.2,15.5,326,999.01,-33.9,54,0.29,0.0,1031.31,90.0
2019-01-29 16:10,50.630455,-96.9807616666667,11.2,17.6,327,999.04,-33.8,54,0.30,0.0,1031.34,90.0
2019-01-29 16:20,50.630435,-96.9807666666667,11.2,15.3,332,999.17,-33.7,53,0.32,0.0,1031.45,90.0
2019-01-29 16:30,50.6304516666667,-96.9807666666667,12.5,17.3,334,999.16,-33.6,52,0.30,0.0,1031.44,90.0
2019-01-29 16:40,50.63045,-96.9807583333333,12.0,18.0,334,999.30,-33.6,52,0.27,0.0,1031.57,90.0
2019-01-29 16:50,50.6304516666667,-96.9807633333333,11.4,16.0,330,999.38,-33.6,52,0.26,0.0,1031.65,90.0
2019-01-29 17:00,50.63045,-96.9807616666667,11.4,16.5,339,999.55,-33.4,51,0.27,0.0,1031.81,90.0
2019-01-29 17:10,50.6304516666667,-96.9807633333333,10.4,15.0,334,999.61,-33.1,50,0.28,0.0,1031.83,90.0
2019-01-29 17:20,50.6304516666667,-96.980765,11.0,15.2,334,999.67,-32.9,49,0.29,0.0,1031.88,90.0
2019-01-29 17:30,50.6304516666667,-96.980765,13.0,19.3,333,999.65,-33.0,48,0.30,0.0,1031.86,90.0
2019-01-29 17:40,50.6304516666667,-96.9807666666667,12.5,18.0,331,999.68,-33.0,48,0.30,0.0,1031.87,90.0
2019-01-29 17:50,50.6304516666667,-96.980765,12.5,18.4,334,999.69,-32.9,48,0.30,0.0,1031.87,90.0
2019-01-29 18:00,50.6304516666667,-96.9807666666667,12.1,17.4,342,999.74,-32.7,47,0.31,0.0,1031.91,90.0
2019-01-29 18:10,50.6304516666667,-96.980765,10.8,16.3,336,999.71,-32.5,47,0.31,0.0,1031.85,90.0
2019-01-29 18:20,50.6304516666667,-96.9807666666667,10.9,16.0,328,999.68,-32.4,46,0.31,0.0,1031.81,90.0
2019-01-29 18:30,50.6304516666667,-96.9807666666667,10.6,18.5,319,999.67,-32.3,45,0.31,0.0,1031.80,90.0
2019-01-29 18:40,50.6304516666667,-96.9807666666667,14.6,19.5,332,999.57,-32.2,44,0.31,0.0,1031.69,90.0
2019-01-29 18:50,50.6304516666667,-96.9807666666667,14.8,21.0,347,999.61,-32.1,44,0.31,0.0,1031.71,90.0
2019-01-29 19:00,50.6304516666667,-96.9807666666667,14.5,19.2,344,999.64,-32.0,44,0.31,0.0,1031.71,270.0
2019-01-29 19:10,50.6304516666667,-96.9807666666667,15.4,23.2,345,999.58,-31.9,45,0.31,0.0,1031.62,270.0
2019-01-29 19:20,50.6304533333333,-96.9807666666667,14.1,20.7,340,999.65,-31.9,44,0.30,0.0,1031.70,270.0
2019-01-29 19:30,50.6304533333333,-96.9807666666667,13.7,20.0,346,999.63,-31.7,44,0.28,0.0,1031.67,270.0
2019-01-29 19:40,50.6304533333333,-96.9807666666667,10.5,15.2,336,999.58,-31.6,46,0.27,0.0,1031.60,270.0
2019-01-29 19:50,50.6304533333333,-96.9807683333333,10.3,14.4,314,999.46,-32.0,48,0.25,0.0,1031.50,270.0
2019-01-29 20:00,50.6304533333333,-96.9807683333333,9.5,14.9,322,999.51,-31.9,49,0.23,0.0,1031.53,270.0
2019-01-29 20:10,50.6304533333333,-96.9807683333333,10.1,14.8,307,999.38,-32.0,50,0.23,0.0,1031.39,270.0
2019-01-29 20:20,50.630465,-96.98077,10.7,15.5,308,999.36,-31.9,49,0.22,0.0,1031.36,270.0
2019-01-29 20:30,50.6304616666667,-96.9807666666667,9.3,13.9,314,999.46,-31.7,49,0.24,0.0,1031.44,270.0
2019-01-29 20:40,50.63046,-96.980765,8.8,11.9,321,999.52,-31.5,49,0.26,0.0,1031.48,270.0
2019-01-29 20:50,50.63046,-96.9807666666667,10.1,14.7,313,999.49,-31.6,48,0.27,0.0,1031.44,270.0
2019-01-29 21:00,50.630445,-96.9807716666667,9.9,17.2,306,999.54,-31.5,47,0.27,0.0,1031.49,360.0
2019-01-29 21:10,50.63045,-96.9807566666667,10.6,16.0,303,999.57,-31.5,46,0.26,0.0,1031.52,360.0
2019-01-29 21:20,50.6304583333333,-96.9807716666667,9.2,14.8,314,999.74,-31.4,46,0.26,0.0,1031.68,360.0
2019-01-29 21:30,50.6304633333333,-96.98075,9.3,13.9,312,999.82,-31.3,46,0.26,0.0,1031.75,360.0
2019-01-29 21:40,50.6304566666667,-96.9807516666667,9.6,15.1,325,999.97,-31.3,46,0.26,0.0,1031.92,360.0
2019-01-29 21:50,50.6304516666667,-96.980755,10.2,14.5,324,1000.11,-31.2,44,0.25,0.0,1032.05,360.0
2019-01-29 22:00,50.6304516666667,-96.9807583333333,9.5,14.1,316,1000.13,-31.2,44,0.25,0.0,1032.08,90.0
2019-01-29 22:10,50.6304533333333,-96.98076,10.6,19.2,312,1000.11,-31.3,45,0.27,0.0,1032.06,90.0
2019-01-29 22:20,50.6304333333333,-96.9807716666667,10.2,16.0,303,1000.24,-31.4,45,0.28,0.0,1032.19,90.0
2019-01-29 22:30,50.63046,-96.9807683333333,9.5,13.9,308,1000.34,-31.5,46,0.30,0.0,1032.28,90.0
2019-01-29 22:40,50.63046,-96.9807683333333,10.8,16.5,316,1000.45,-31.6,45,0.33,0.0,1032.41,90.0
2019-01-29 22:50,50.63045,-96.980775,8.6,13.2,317,1000.64,-31.8,46,0.34,0.0,1032.62,90.0
2019-01-29 23:00,50.6304516666667,-96.980775,9.4,14.4,320,1000.65,-32.1,46,0.36,0.0,1032.65,270.0
2019-01-29 23:10,50.6304433333333,-96.980765,8.8,12.4,318,1000.73,-32.3,47,0.36,0.0,1032.74,270.0
2019-01-29 23:20,50.6304466666667,-96.9807683333333,8.2,12.6,320,1000.75,-32.4,48,0.36,0.0,1032.76,270.0
2019-01-29 23:30,50.6304483333333,-96.9807683333333,8.6,12.6,321,1000.78,-32.5,49,0.37,0.0,1032.80,270.0
